Details From KSFO - San Francisco Intl
To RJAA - Narita Intl
Flight Number -
Tags Generated
Created
Modified
Stats Distance 4,443 nm / 8,229 km
Max Altitude 0 ft / 0 m
Waypoints 3
Social Downloads 1
Likes 0
Share VATSIM

Download

Looking for another format? Having issues loading an existing format? Contact us
Advertisement - Login to hide

Notes

Generated

Route

KSFO HKE RJAA

ID Type Via Altitude Latitude Longitude Leg Dist Tot Dist Heading (true) Name
O KSFO APT - 0 ft / 0 m 37.60898˚ -122.38220˚ - 0 nm - -
HKE VOR - 0 ft / 0 m 35.80896˚ 140.37539˚ 4442 nm 4442 nm 303° / 235° HOKUSO VOR-DME
O RJAA APT - 0 ft / 0 m 35.80271˚ 140.37991˚ 0 nm 4443 nm 150° / 150° -

Altitude Profile

Advertisement - Login to hide

Weather


0- 5 10 15 20 25 30 35+ Temperature / ° C

Clouds and Precipitation
Forecast for 2018-05-21 06:00 UTC. Updated 4 hours ago

Ground ~20,000 ft ~40,000 ft Winds

KSFO

Details ICAO KSFO (SFO)
Name San Francisco Intl
Region United States
Timezone America/Los_Angeles (UTC-7.0)
Stats Elevation 13 ft / 4 m (AMSL)
Location 37.618674° -122.375008°
Runways 4
Magnetic Variation 13.422° E

METAR

KSFO 210856Z 25010KT 10SM FEW008 SCT011 BKN015 12/08 A2988 RMK AO2 SLP117 T01220083 58009

Decode

TAF

TAF AMD KSFO 210903Z 2109/2212 25011KT P6SM FEW008 BKN014 FM211600 26008KT P6SM BKN020 FM212100 27017G24KT P6SM SCT020 FM220400 26010KT P6SM SCT020 FM220600 27009KT P6SM BKN015

Decode

Departure Runways

ID Width Length Bearing (true) Bearing (mag) Surface Threshold Offset Overrun Length
01L 200 ft / 61 m 7,509 ft / 2,289 m 27.70° 14.28° Asphalt 492 ft / 150 m 0 ft / 0 m
01R 200 ft / 61 m 8,907 ft / 2,715 m 27.71° 14.29° Asphalt 492 ft / 150 m 0 ft / 0 m
10L 200 ft / 61 m 11,856 ft / 3,614 m 117.89° 104.47° Asphalt 0 ft / 0 m 860 ft / 262 m
10R 200 ft / 61 m 10,589 ft / 3,228 m 117.90° 104.48° Asphalt 0 ft / 0 m 0 ft / 0 m
19L 200 ft / 61 m 8,907 ft / 2,715 m 207.72° 194.30° Asphalt 0 ft / 0 m 0 ft / 0 m
19R 200 ft / 61 m 7,509 ft / 2,289 m 207.70° 194.28° Asphalt 0 ft / 0 m 0 ft / 0 m
28L 200 ft / 61 m 10,589 ft / 3,228 m 297.92° 284.50° Asphalt 0 ft / 0 m 341 ft / 104 m
28R 200 ft / 61 m 11,856 ft / 3,614 m 297.91° 284.49° Asphalt 0 ft / 0 m 341 ft / 104 m

RJAA

Details ICAO RJAA (NRT)
Name NARITA INTL
Region Japan
Timezone Asia/Tokyo (UTC+9.0)
Stats Elevation 141 ft / 43 m (AMSL)
Location 35.776552° 140.382770°
Runways 2
Magnetic Variation 7.430° W

METAR

RJAA 210900Z 17009KT 9999 FEW030 BKN/// 19/05 Q1018 NOSIG RMK 1CU030 A3009

Decode

TAF

TAF RJAA 210512Z 2106/2212 14005KT 9999 FEW030= TAF RJBB 210506Z 2106/2212 23012KT 9999 FEW030 BECMG 2111/2113 12004KT BECMG 2200/2203 26008KT BECMG 2209/2212 08004KT

Decode

Destination Runways

ID Width Length Bearing (true) Bearing (mag) Surface Threshold Offset Overrun Length
16L 196 ft / 60 m 7,162 ft / 2,183 m 149.61° 157.04° Asphalt 190 ft / 58 m 0 ft / 0 m
16R 196 ft / 60 m 13,142 ft / 4,006 m 149.61° 157.04° Asphalt 0 ft / 0 m 410 ft / 125 m
34L 196 ft / 60 m 13,142 ft / 4,006 m 329.62° 337.05° Asphalt 0 ft / 0 m 415 ft / 126 m
34R 196 ft / 60 m 7,162 ft / 2,183 m 329.62° 337.05° Asphalt 190 ft / 58 m 0 ft / 0 m

Approach Navaids

Runway Type Ident Frequency Range Bearing (true) Bearing (mag) Slope Elevation
16L Localiser ITM 110.70 MHz 18 nm / 33 km 149.62° 157.05° - 141 ft / 43 m (AMSL)
16L Glidescope ITM 110.70 MHz 10 nm / 19 km 149.62° 157.05° 3.00° 141 ft / 43 m (AMSL)
16L DME ITM 110.70 MHz 18 nm / 33 km - - - 145 ft / 44 m (AMSL)
16R Localiser IKF 111.50 MHz 18 nm / 33 km 149.63° 157.06° - 141 ft / 43 m (AMSL)
16R Glidescope IKF 111.50 MHz 10 nm / 19 km 149.62° 157.05° 3.00° 141 ft / 43 m (AMSL)
16R DME IKF 111.50 MHz 18 nm / 33 km - - - 145 ft / 44 m (AMSL)
34L Localiser IYQ 111.90 MHz 18 nm / 33 km 329.61° 337.04° - 141 ft / 43 m (AMSL)
34L Glidescope IYQ 111.90 MHz 10 nm / 19 km 329.62° 337.05° 3.00° 141 ft / 43 m (AMSL)
34L DME IYQ 111.90 MHz 18 nm / 33 km - - - 153 ft / 47 m (AMSL)
34R Localiser ITJ 110.90 MHz 18 nm / 33 km 329.62° 337.05° - 141 ft / 43 m (AMSL)
34R Glidescope ITJ 110.90 MHz 10 nm / 19 km 329.62° 337.05° 3.00° 141 ft / 43 m (AMSL)
34R DME ITJ 110.90 MHz 18 nm / 33 km - - - 148 ft / 45 m (AMSL)

Popular Alternatives